ORBCOMM FM109           
1 40086U 14040A   19260.12969621 -.00000058  00000-0  24923-4 0  9999
2 40086  47.0039 174.3380 0002065  27.2068 332.8924 14.54752887275238
ORBCOMM FM107           
1 40087U 14040B   19259.87749814 -.00000072  00000-0  21720-4 0  9998
2 40087  47.0059 176.0792 0001807  35.2704 324.8300 14.54750892275194
ORBCOMM FM106           
1 40088U 14040C   19260.15764805 -.00000047  00000-0  25456-4 0  9991
2 40088  47.0617 145.0107 0018673  83.3711 276.9303 14.64329626275639
ORBCOMM FM111           
1 40089U 14040D   19260.10067430 -.00000050  00000-0  21935-4 0  9999
2 40089  47.0062 227.0819 0036767 319.6583  40.1584 14.77163688279275
ORBCOMM FM104           
1 40090U 14040E   19259.31249909 -.00000047  00000-0  28601-4 0  9998
2 40090  47.0057 189.8110 0018257 356.4722   3.6030 14.53367110274958
ORBCOMM FM103           
1 40091U 14040F   19260.10738263 -.00000059  00000-0  24729-4 0  9994
2 40091  47.0061 175.2982 0002170  26.1638 333.9355 14.54779677275208